Location: The Saddle
(36.8333°N, 80.3417°W)
Time: 16:31:36
(UTC-05:00)

A-11 Canister half - Pass Details

Date: 10 December 2023
Orbit: 1526 x 1682 km, 47.3° (Epoch: 01 March)

Event Time Altitude Azimuth Distance (km) Brightness Sun altitude
Rises 15:04:33 0° 184° (S) 4,854 12.5 18.0°
Reaches altitude 10° 15:08:39 10° 170° (S) 3,892 11.8 17.5°
Maximum altitude 15:15:37 22° 125° (SE) 3,092 10.6 16.5°
Drops below altitude 10° 15:22:39 10° 80° (E) 3,943 10.7 15.5°
Sets 15:26:47 0° 66° (ENE) 4,935 11.1 15.0°
